CZ-3C DEB, 39349

Orbit data source: Space-Track

CZ-3C DEB, 39349 is space debris in HEO originally from a launch on Sun, 31 Oct 2010 UTC launched from the Xichang Space Center, China (XSC). Debris objects in space refer to the collection of defunct objects orbiting the Earth. Examples of debris include non-operational satellites, rocket bodies, and fragments generated from explosions, collisions, or faulty payload assembly.

Loading next visibility...
Identifier
39349, 2010-057P
Orbit
HEO
Country
Flag of CNCN / PRC
Related business
Manufacturer
CALT
Mission
Spacecraft
Bus & Motor
Unknown
Mass
Unknown
Launch date (UTC)
2010-10-31 (15 years ago)
Launch vehicle
Unknown
Launch site
Xichang Space Center, China (XSC)
Object type
Payload
Rocket body
Debris
Shape & HBR
Unknown shape, 0.4 m
Radar Cross Section
Medium (>0.1 m² and <1 m²)

Expand to show TLE details & history
Last TLE update: 1 day ago

TLE from 1 day ago
0 CZ-3C DEB
1 39349U 10057P   25349.18515176  .00000165  00000-0  29702-2 0  9992
2 39349  20.7302  54.9624 7154516 232.8567  49.4311  2.30167756 93535
Epoch: 2025-12-15T04:26Z
TLE epoch observation values (Epoch: 2025-12-15T04:26:37.112Z)
Latitude
3.14483°
Longitude
-87.43895°
Altitude
18,032.886 km
Speed
4.026 km/s
True Right ascension
04h 13m 12s
True Declination
3° 08' 22"
Sunlit
Object was in daylight at epoch
Visualization orbit readout
Latitude
Unknown
Longitude
Unknown
Altitude
Unknown
Speed
Unknown
Apparent Right ascension
Unknown
Apparent Declination
Unknown
Sunlit
N/A
Visualization observer readout
Local Sidereal Time
08:42:05
Azimuth
Unknown
Elevation
Unknown
Doppler factor
Unknown
Orbital elements
Apogee altitude
35,196.503 km
Perigee altitude
518.005 km
Semi-major axis
24,235.391 km
Eccentricity
0.71545
Inclination
20.7302°
RAAN
54.9624°
Arg. of periapsis
232.8567°
True anomaly
135.97452°
Mean anomaly
49.4311°
Eccentric anomaly
90.42234°
Mean motion
0.57527 °/min
Orbital period
625.8 mins
BSTAR
0.0029702
Loading maneuver chart data...
Computing Atmospheric mass density...
Loading historical data...
Loading historical data...
Loading historical data...
Loading historical data...
Loading historical data...
Loading historical data...
Loading historical data...

Documentation

Showing up to 5 results
|